QPF
0.07 0.07 0.07 0.07 0.08 0.06 0.04 0.03 0.04 0.04 0.04 0.05 0.04 0.04 0.03 0.02 0.02 0.02 0.01 0.02 0.03 0.05 0.12 0.11 0.07 0.05 0.04 0.04 0.05 0.05 0.04 0.03 0.02 0.02 0.03 0.03 0.04 0.04
0.06 0.06 0.06 0.05 0.07 0.06 0.04 0.04 0.03 0.03 0.03 0.04 0.04 0.03 0.03 0.02 0.02 0.01 0.01 0.02 0.03 0.04 0.07 0.10 0.08 0.06 0.05 0.04 0.04 0.04 0.04 0.03 0.03 0.03 0.03 0.03 0.04 0.04
0.06 0.05 0.05 0.04 0.05 0.06 0.04 0.04 0.04 0.03 0.03 0.04 0.04 0.03 0.03 0.02 0.01 0.01 0.01 0.01 0.02 0.03 0.05 0.07 0.08 0.06 0.05 0.03 0.03 0.04 0.04 0.04 0.04 0.03 0.03 0.04 0.04 0.04
0.07 0.05 0.04 0.04 0.05 0.06 0.04 0.04 0.03 0.03 0.03 0.04 0.03 0.03 0.03 0.02 0.01 0.01 0.01 0.01 0.01 0.03 0.04 0.05 0.08 0.05 0.04 0.03 0.03 0.04 0.04 0.05 0.05 0.04 0.03 0.03 0.03 0.03
0.07 0.05 0.05 0.05 0.05 0.06 0.05 0.04 0.04 0.03 0.03 0.04 0.04 0.04 0.03 0.02 0.02 0.02 0.01 0.01 0.02 0.03 0.04 0.05 0.06 0.04 0.03 0.03 0.03 0.03 0.04 0.05 0.04 0.03 0.03 0.03 0.02 0.02
0.06 0.06 0.05 0.04 0.05 0.05 0.05 0.05 0.04 0.04 0.04 0.04 0.04 0.03 0.03 0.03 0.02 0.02 0.02 0.02 0.02 0.04 0.05 0.04 0.04 0.03 0.03 0.02 0.02 0.03 0.03 0.04 0.04 0.03 0.02 0.02 0.02 0.02
0.07 0.07 0.07 0.07 0.06 0.05 0.04 0.04 0.04 0.04 0.04 0.03 0.04 0.03 0.03 0.03 0.03 0.02 0.02 0.02 0.03 0.04 0.05 0.04 0.02 0.02 0.02 0.02 0.03 0.03 0.03 0.04 0.04 0.03 0.03 0.02 0.02 0.02
0.08 0.07 0.07 0.07 0.06 0.05 0.04 0.04 0.04 0.04 0.03 0.03 0.03 0.03 0.03 0.03 0.03 0.02 0.03 0.03 0.03 0.04 0.04 0.03 0.02 0.02 0.01 0.02 0.03 0.03 0.03 0.04 0.05 0.04 0.03 0.03 0.03 0.03
0.06 0.06 0.06 0.05 0.05 0.04 0.04 0.04 0.03 0.03 0.03 0.03 0.02 0.02 0.03 0.03 0.03 0.02 0.02 0.03 0.03 0.03 0.03 0.04 0.03 0.02 0.02 0.02 0.03 0.03 0.04 0.05 0.05 0.05 0.04 0.04 0.03 0.03
0.05 0.05 0.04 0.04 0.04 0.04 0.03 0.03 0.03 0.02 0.02 0.02 0.02 0.02 0.02 0.02 0.02 0.02 0.03 0.03 0.03 0.03 0.03 0.03 0.03 0.02 0.02 0.02 0.03 0.03 0.03 0.04 0.05 0.05 0.04 0.03 0.03 0.03
0.03 0.03 0.03 0.03 0.03 0.03 0.03 0.02 0.02 0.01 0.01 0.01 0.01 0.01 0.01 0.01 0.02 0.03 0.03 0.03 0.03 0.03 0.03 0.03 0.03 0.02 0.02 0.02 0.03 0.04 0.03 0.04 0.04 0.05 0.04 0.03 0.03 0.03
0.03 0.03 0.04 0.03 0.03 0.02 0.01 0.01 0.01 0.01 0.01 0.01 0.01 0.01 0.01 0.01 0.02 0.02 0.02 0.03 0.03 0.03 0.03 0.03 0.03 0.03 0.02 0.02 0.02 0.03 0.03 0.04 0.04 0.05 0.05 0.04 0.03 0.03
0.03 0.03 0.04 0.04 0.03 0.02 0.01 0.01 0.01 0.01 0.01 0.01 0.01 0.01 0.01 0.01 0.02 0.02 0.02 0.03 0.03 0.04 0.03 0.04 0.04 0.03 0.03 0.02 0.02 0.03 0.04 0.04 0.04 0.05 0.05 0.05 0.04 0.03
0.02 0.03 0.03 0.03 0.02 0.02 0.01 0.01 0.01 0.01 0.01 0.00 0.00 0.01 0.01 0.01 0.02 0.02 0.03 0.03 0.04 0.04 0.04 0.05 0.05 0.04 0.04 0.03 0.02 0.03 0.04 0.04 0.04 0.04 0.04 0.05 0.04 0.03
0.02 0.03 0.03 0.03 0.02 0.02 0.02 0.01 0.01 0.01 0.00 0.00 0.00 0.00 0.01 0.01 0.02 0.03 0.03 0.03 0.04 0.05 0.05 0.05 0.04 0.04 0.04 0.04 0.04 0.03 0.04 0.05 0.04 0.04 0.04 0.04 0.03 0.03
0.03 0.04 0.03 0.02 0.02 0.02 0.02 0.02 0.01 0.01 0.00 0.00 0.00 0.00 0.00 0.01 0.02 0.02 0.02 0.03 0.04 0.04 0.05 0.05 0.04 0.04 0.04 0.04 0.04 0.04 0.04 0.05 0.05 0.04 0.03 0.03 0.03 0.03
0.03 0.03 0.02 0.02 0.02 0.02 0.02 0.01 0.01 0.01 0.01 0.00 0.00 0.00 0.00 0.01 0.01 0.02 0.01 0.01 0.02 0.03 0.03 0.04 0.04 0.04 0.04 0.04 0.04 0.04 0.04 0.04 0.04 0.03 0.03 0.03 0.03 0.03
0.03 0.02 0.02 0.02 0.02 0.02 0.01 0.01 0.01 0.01 0.01 0.01 0.00 0.00 0.00 0.01 0.01 0.01 0.01 0.01 0.01 0.01 0.02 0.02 0.03 0.03 0.04 0.04 0.03 0.03 0.03 0.03 0.03 0.03 0.03 0.03 0.03 0.03
0.02 0.02 0.02 0.02 0.02 0.02 0.01 0.01 0.01 0.01 0.00 0.00 0.00 0.00 0.01 0.01 0.01 0.01 0.01 0.01 0.01 0.01 0.01 0.01 0.02 0.02 0.03 0.03 0.03 0.03 0.03 0.03 0.03 0.03 0.02 0.03 0.03 0.03
0.02 0.02 0.02 0.02 0.02 0.01 0.01 0.01 0.01 0.00 0.00 0.00 0.00 0.00 0.01 0.01 0.01 0.01 0.01 0.01 0.01 0.01 0.01 0.01 0.01 0.02 0.02 0.02 0.03 0.03 0.03 0.04 0.03 0.03 0.02 0.02 0.03 0.02
0.03 0.03 0.03 0.02 0.02 0.01 0.01 0.01 0.00 0.00 0.00 0.00 0.00 0.01 0.01 0.01 0.01 0.01 0.01 0.01 0.01 0.01 0.01 0.01 0.01 0.01 0.02 0.02 0.02 0.02 0.02 0.02 0.03 0.03 0.03 0.03 0.02 0.03
0.03 0.03 0.03 0.02 0.02 0.01 0.01 0.01 0.00 0.00 0.00 0.00 0.00 0.00 0.00 0.01 0.01 0.01 0.01 0.01 0.01 0.01 0.01 0.01 0.01 0.01 0.01 0.02 0.02 0.02 0.01 0.01 0.01 0.02 0.02 0.03 0.04 0.05
0.04 0.04 0.03 0.03 0.02 0.02 0.01 0.01 0.00 0.00 0.00 0.00 0.00 0.00 0.00 0.00 0.01 0.01 0.01 0.01 0.01 0.01 0.01 0.01 0.01 0.01 0.01 0.02 0.02 0.02 0.02 0.02 0.02 0.02 0.02 0.02 0.03 0.03
MSLP
1019.95 1020.31 1020.64 1020.93 1021.17 1021.37 1021.54 1021.68 1021.81 1021.92 1022.03 1022.14 1022.24 1022.33 1022.39 1022.42 1022.40 1022.33 1022.20 1022.01 1021.76 1021.47 1021.15 1020.80 1020.43 1020.04 1019.63 1019.19 1018.73 1018.24 1017.72 1017.18 1016.62 1016.04 1015.46 1014.88 1014.31 1013.75
1019.82 1020.25 1020.64 1020.99 1021.29 1021.53 1021.72 1021.86 1021.96 1022.03 1022.08 1022.11 1022.13 1022.14 1022.14 1022.11 1022.04 1021.93 1021.77 1021.56 1021.30 1021.00 1020.67 1020.32 1019.94 1019.55 1019.15 1018.72 1018.28 1017.80 1017.31 1016.78 1016.23 1015.66 1015.08 1014.49 1013.90 1013.31
1019.64 1020.13 1020.58 1020.99 1021.34 1021.62 1021.85 1022.00 1022.10 1022.15 1022.16 1022.15 1022.12 1022.07 1022.01 1021.93 1021.81 1021.65 1021.45 1021.20 1020.90 1020.56 1020.19 1019.80 1019.39 1018.98 1018.57 1018.14 1017.71 1017.27 1016.80 1016.32 1015.80 1015.26 1014.69 1014.11 1013.50 1012.89
1019.41 1019.95 1020.45 1020.91 1021.31 1021.65 1021.90 1022.09 1022.20 1022.26 1022.27 1022.24 1022.18 1022.11 1022.01 1021.89 1021.73 1021.53 1021.28 1020.98 1020.62 1020.21 1019.77 1019.31 1018.85 1018.39 1017.94 1017.50 1017.08 1016.65 1016.23 1015.78 1015.31 1014.81 1014.28 1013.71 1013.11 1012.48
1019.15 1019.73 1020.27 1020.78 1021.22 1021.59 1021.89 1022.11 1022.26 1022.33 1022.36 1022.34 1022.30 1022.22 1022.12 1021.99 1021.81 1021.58 1021.28 1020.91 1020.48 1020.00 1019.47 1018.92 1018.37 1017.84 1017.33 1016.86 1016.42 1016.00 1015.60 1015.19 1014.77 1014.31 1013.82 1013.27 1012.67 1012.04
1018.87 1019.48 1020.06 1020.59 1021.07 1021.48 1021.81 1022.07 1022.25 1022.36 1022.42 1022.44 1022.43 1022.38 1022.30 1022.18 1022.00 1021.75 1021.42 1021.01 1020.51 1019.94 1019.32 1018.67 1018.02 1017.39 1016.81 1016.27 1015.79 1015.36 1014.96 1014.57 1014.17 1013.75 1013.28 1012.76 1012.18 1011.54
1018.59 1019.22 1019.82 1020.38 1020.88 1021.31 1021.67 1021.96 1022.17 1022.33 1022.43 1022.49 1022.53 1022.53 1022.49 1022.40 1022.24 1022.00 1021.66 1021.21 1020.66 1020.03 1019.32 1018.58 1017.83 1017.11 1016.42 1015.81 1015.26 1014.78 1014.35 1013.94 1013.54 1013.13 1012.67 1012.17 1011.60 1010.97
1018.31 1018.96 1019.58 1020.15 1020.66 1021.11 1021.48 1021.79 1022.03 1022.22 1022.36 1022.47 1022.56 1022.61 1022.62 1022.58 1022.46 1022.24 1021.92 1021.47 1020.90 1020.22 1019.46 1018.65 1017.81 1016.99 1016.21 1015.50 1014.86 1014.30 1013.79 1013.34 1012.90 1012.46 1011.99 1011.48 1010.91 1010.29
1018.04 1018.70 1019.33 1019.91 1020.42 1020.87 1021.25 1021.57 1021.83 1022.04 1022.22 1022.37 1022.49 1022.60 1022.66 1022.67 1022.60 1022.43 1022.13 1021.71 1021.15 1020.47 1019.68 1018.82 1017.93 1017.03 1016.17 1015.35 1014.61 1013.93 1013.33 1012.78 1012.26 1011.76 1011.25 1010.71 1010.14 1009.53
1017.77 1018.45 1019.08 1019.66 1020.18 1020.63 1021.01 1021.33 1021.59 1021.82 1022.01 1022.19 1022.34 1022.48 1022.58 1022.64 1022.61 1022.49 1022.25 1021.87 1021.35 1020.69 1019.92 1019.06 1018.14 1017.19 1016.25 1015.34 1014.49 1013.70 1012.97 1012.29 1011.66 1011.06 1010.48 1009.89 1009.30 1008.69
1017.50 1018.20 1018.84 1019.43 1019.95 1020.40 1020.77 1021.09 1021.36 1021.58 1021.78 1021.96 1022.13 1022.29 1022.41 1022.49 1022.50 1022.42 1022.23 1021.90 1021.44 1020.83 1020.11 1019.28 1018.36 1017.40 1016.41 1015.43 1014.48 1013.56 1012.70 1011.89 1011.12 1010.40 1009.72 1009.07 1008.44 1007.82
1017.26 1017.97 1018.63 1019.22 1019.75 1020.20 1020.58 1020.89 1021.15 1021.37 1021.57 1021.74 1021.90 1022.05 1022.17 1022.26 1022.28 1022.23 1022.08 1021.80 1021.40 1020.86 1020.20 1019.42 1018.55 1017.60 1016.59 1015.56 1014.52 1013.50 1012.51 1011.56 1010.65 1009.81 1009.02 1008.29 1007.61 1006.98
1017.05 1017.78 1018.45 1019.06 1019.60 1020.06 1020.45 1020.76 1021.02 1021.24 1021.42 1021.57 1021.71 1021.83 1021.93 1021.99 1022.01 1021.96 1021.82 1021.59 1021.24 1020.77 1020.17 1019.46 1018.64 1017.73 1016.73 1015.68 1014.58 1013.47 1012.37 1011.30 1010.27 1009.30 1008.41 1007.60 1006.86 1006.21
1016.89 1017.64 1018.33 1018.96 1019.51 1019.99 1020.39 1020.72 1020.98 1021.19 1021.36 1021.49 1021.60 1021.68 1021.73 1021.75 1021.73 1021.65 1021.51 1021.29 1020.97 1020.56 1020.03 1019.38 1018.62 1017.76 1016.79 1015.73 1014.61 1013.45 1012.27 1011.10 1009.97 1008.90 1007.91 1007.03 1006.24 1005.55
1016.80 1017.56 1018.27 1018.92 1019.49 1019.99 1020.41 1020.75 1021.02 1021.24 1021.40 1021.51 1021.57 1021.60 1021.60 1021.56 1021.48 1021.36 1021.19 1020.96 1020.65 1020.27 1019.78 1019.20 1018.49 1017.68 1016.75 1015.71 1014.59 1013.40 1012.17 1010.94 1009.74 1008.60 1007.54 1006.59 1005.75 1005.03
1016.77 1017.55 1018.27 1018.93 1019.52 1020.04 1020.48 1020.84 1021.13 1021.35 1021.51 1021.60 1021.63 1021.61 1021.55 1021.44 1021.30 1021.12 1020.90 1020.64 1020.32 1019.94 1019.48 1018.93 1018.28 1017.50 1016.61 1015.60 1014.49 1013.30 1012.06 1010.80 1009.56 1008.37 1007.27 1006.27 1005.39 1004.62
1016.82 1017.60 1018.33 1018.99 1019.59 1020.12 1020.58 1020.97 1021.27 1021.50 1021.66 1021.73 1021.74 1021.68 1021.56 1021.39 1021.18 1020.93 1020.66 1020.36 1020.01 1019.62 1019.17 1018.63 1018.01 1017.26 1016.41 1015.43 1014.34 1013.16 1011.93 1010.66 1009.41 1008.20 1007.07 1006.04 1005.12 1004.30
1016.94 1017.71 1018.42 1019.08 1019.68 1020.21 1020.69 1021.08 1021.40 1021.64 1021.80 1021.87 1021.85 1021.76 1021.59 1021.37 1021.11 1020.81 1020.48 1020.13 1019.76 1019.34 1018.88 1018.34 1017.72 1017.00 1016.16 1015.21 1014.14 1012.99 1011.77 1010.52 1009.27 1008.06 1006.91 1005.85 1004.90 1004.04
1017.13 1017.86 1018.55 1019.19 1019.78 1020.31 1020.78 1021.18 1021.50 1021.74 1021.90 1021.96 1021.93 1021.81 1021.62 1021.37 1021.06 1020.72 1020.36 1019.97 1019.56 1019.13 1018.64 1018.10 1017.48 1016.76 1015.93 1014.99 1013.94 1012.80 1011.60 1010.37 1009.13 1007.92 1006.77 1005.69 1004.70 1003.78
1017.39 1018.08 1018.73 1019.34 1019.90 1020.40 1020.85 1021.24 1021.56 1021.79 1021.94 1022.00 1021.96 1021.83 1021.62 1021.35 1021.02 1020.66 1020.28 1019.87 1019.44 1018.98 1018.48 1017.93 1017.29 1016.57 1015.74 1014.80 1013.76 1012.64 1011.45 1010.23 1009.00 1007.80 1006.64 1005.54 1004.50 1003.53
1017.73 1018.37 1018.97 1019.53 1020.05 1020.52 1020.93 1021.29 1021.58 1021.80 1021.93 1021.97 1021.92 1021.78 1021.57 1021.30 1020.97 1020.61 1020.22 1019.81 1019.37 1018.91 1018.40 1017.83 1017.19 1016.45 1015.62 1014.68 1013.64 1012.52 1011.34 1010.13 1008.90 1007.70 1006.53 1005.40 1004.32 1003.29
1018.15 1018.73 1019.28 1019.78 1020.24 1020.66 1021.03 1021.34 1021.59 1021.77 1021.87 1021.89 1021.83 1021.69 1021.48 1021.21 1020.90 1020.55 1020.18 1019.78 1019.36 1018.90 1018.39 1017.82 1017.17 1016.43 1015.59 1014.64 1013.60 1012.48 1011.30 1010.09 1008.87 1007.65 1006.46 1005.30 1004.18 1003.08
1018.65 1019.17 1019.64 1020.08 1020.48 1020.84 1021.15 1021.40 1021.60 1021.73 1021.80 1021.79 1021.71 1021.56 1021.36 1021.10 1020.81 1020.49 1020.14 1019.77 1019.37 1018.93 1018.44 1017.88 1017.24 1016.50 1015.65 1014.70 1013.66 1012.54 1011.36 1010.14 1008.91 1007.68 1006.47 1005.28 1004.11 1002.95
Thickness
5534 5533 5533 5532 5532 5532 5532 5532 5532 5533 5533 5528 5524 5521 5519 5517 5516 5514 5513 5511 5510 5509 5508 5507 5506 5504 5502 5500 5498 5496 5494 5493 5492 5491 5490 5488 5487 5487
5524 5524 5524 5524 5522 5522 5522 5522 5522 5522 5521 5519 5514 5511 5508 5507 5505 5504 5503 5501 5500 5499 5498 5497 5494 5493 5492 5489 5488 5486 5485 5484 5483 5482 5481 5479 5479 5478
5515 5516 5516 5514 5513 5513 5513 5512 5511 5510 5509 5507 5503 5500 5498 5496 5495 5493 5492 5491 5491 5488 5487 5485 5484 5482 5481 5479 5478 5477 5476 5474 5474 5473 5472 5472 5471 5470
5507 5507 5506 5505 5504 5503 5503 5503 5501 5499 5497 5496 5493 5490 5487 5485 5484 5483 5481 5481 5480 5478 5477 5475 5474 5473 5471 5470 5468 5467 5466 5465 5465 5464 5464 5464 5463 5462
5497 5497 5496 5496 5495 5493 5493 5492 5490 5487 5485 5483 5481 5478 5476 5474 5473 5473 5471 5471 5469 5468 5466 5465 5464 5462 5461 5460 5459 5458 5458 5457 5456 5456 5456 5456 5455 5454
5487 5487 5487 5486 5486 5484 5483 5481 5479 5476 5474 5472 5470 5468 5466 5463 5461 5462 5462 5460 5460 5457 5456 5455 5454 5453 5452 5451 5450 5449 5449 5448 5448 5449 5449 5448 5447 5446
5477 5477 5476 5475 5475 5473 5472 5470 5468 5467 5464 5462 5460 5458 5456 5453 5451 5450 5450 5450 5450 5447 5447 5446 5445 5445 5443 5442 5441 5440 5440 5440 5441 5441 5441 5440 5440 5439
5468 5467 5465 5464 5463 5462 5460 5459 5458 5456 5454 5451 5450 5449 5446 5443 5440 5439 5439 5440 5441 5437 5436 5438 5436 5436 5434 5433 5432 5432 5432 5433 5433 5433 5434 5433 5432 5432
5459 5457 5456 5454 5453 5451 5449 5447 5445 5443 5443 5441 5439 5437 5434 5432 5430 5430 5429 5429 5428 5426 5425 5428 5428 5427 5426 5425 5425 5424 5424 5425 5426 5426 5426 5426 5425 5425
5449 5448 5446 5445 5443 5441 5439 5437 5434 5432 5431 5429 5428 5426 5423 5421 5420 5420 5419 5419 5419 5417 5414 5416 5419 5419 5419 5418 5418 5417 5417 5418 5419 5419 5419 5418 5418 5418
5438 5437 5436 5435 5433 5431 5430 5428 5426 5422 5419 5418 5416 5414 5413 5411 5410 5410 5410 5411 5411 5410 5406 5405 5409 5410 5412 5413 5412 5410 5410 5411 5411 5411 5412 5411 5411 5411
5428 5427 5425 5424 5423 5422 5421 5420 5418 5415 5412 5410 5408 5407 5406 5404 5403 5402 5401 5401 5400 5401 5399 5397 5398 5399 5403 5405 5404 5404 5404 5404 5404 5405 5405 5404 5404 5403
5419 5418 5416 5415 5414 5413 5413 5411 5409 5406 5404 5402 5400 5399 5398 5397 5395 5393 5391 5391 5390 5390 5389 5387 5388 5388 5387 5392 5396 5396 5397 5398 5398 5399 5399 5398 5396 5396
5411 5409 5408 5406 5406 5405 5403 5401 5399 5397 5396 5394 5392 5391 5390 5388 5386 5385 5383 5382 5381 5381 5380 5379 5379 5378 5378 5381 5385 5389 5389 5390 5391 5392 5392 5391 5390 5389
5401 5400 5399 5397 5396 5395 5394 5392 5391 5390 5388 5386 5385 5383 5382 5380 5379 5378 5377 5376 5375 5375 5374 5373 5373 5372 5372 5372 5375 5378 5381 5383 5384 5385 5385 5385 5384 5384
5391 5391 5389 5388 5387 5385 5384 5383 5383 5382 5380 5378 5377 5376 5374 5373 5372 5371 5371 5370 5370 5370 5368 5368 5367 5366 5367 5368 5369 5371 5372 5374 5377 5377 5378 5378 5378 5378
5382 5382 5381 5380 5379 5377 5376 5376 5375 5374 5372 5371 5370 5369 5368 5367 5367 5365 5364 5364 5364 5364 5364 5363 5362 5361 5362 5362 5364 5366 5367 5368 5369 5370 5371 5372 5372 5372
5373 5374 5373 5373 5372 5370 5369 5369 5368 5367 5366 5364 5363 5363 5362 5361 5361 5360 5359 5358 5358 5357 5357 5357 5357 5359 5360 5360 5358 5360 5361 5362 5364 5364 5364 5365 5367 5367
5366 5366 5366 5365 5364 5364 5363 5362 5361 5360 5358 5358 5357 5356 5356 5356 5356 5355 5354 5353 5352 5351 5351 5351 5351 5353 5355 5356 5356 5353 5354 5356 5358 5360 5360 5360 5361 5363
5358 5359 5358 5358 5358 5357 5357 5356 5355 5353 5352 5352 5351 5350 5350 5350 5350 5350 5349 5348 5347 5346 5347 5347 5346 5346 5346 5346 5347 5349 5349 5350 5353 5355 5356 5356 5358 5360
5351 5351 5352 5352 5351 5351 5350 5349 5348 5347 5346 5346 5345 5345 5345 5345 5345 5345 5344 5343 5342 5342 5342 5342 5341 5340 5340 5341 5343 5346 5347 5347 5347 5349 5351 5354 5356 5359
5344 5345 5346 5346 5345 5345 5344 5343 5342 5341 5341 5340 5340 5340 5340 5340 5340 5340 5340 5339 5338 5338 5338 5338 5338 5338 5339 5339 5341 5342 5344 5345 5346 5347 5349 5350 5352 5355
5339 5340 5340 5340 5340 5339 5339 5338 5337 5337 5336 5335 5335 5335 5335 5335 5335 5336 5336 5335 5335 5335 5335 5336 5336 5337 5337 5337 5338 5339 5340 5343 5346 5348 5350 5350 5351 5352